This is the latest recevied weather packets stored in our database for station/object KE8GJZ-1. If no packets are shown the sender has not sent any weather packets the latest 10 day(s).
| Time | Temp. | Humidity | Pressure | Rain* | Wind** | Luminosity | Snow |
|---|---|---|---|---|---|---|---|
| 1777229745 | 18.89° C | 47% | 1018.4 hPa | 0 mm | - | 700 W/m² | - |
| 1777229442 | 18.89° C | 46% | 1018.4 hPa | 0 mm | - | 710 W/m² | - |
| 1777229139 | 18.89° C | 47% | 1018.4 hPa | 0 mm | - | 706 W/m² | - |
| 1777228836 | 19.44° C | 49% | 1018.5 hPa | 0 mm | - | 625 W/m² | - |
| 1777228531 | 19.44° C | 46% | 1018.4 hPa | 0 mm | - | 633 W/m² | - |
| 1777228228 | 19.44° C | 49% | 1018.3 hPa | 0 mm | - | 694 W/m² | - |
| 1777227927 | 18.89° C | 49% | 1018.4 hPa | 0 mm | - | 592 W/m² | - |
| 1777227623 | 18.33° C | 48% | 1018.6 hPa | 0 mm | - | 642 W/m² | - |
| 1777227318 | 17.78° C | 49% | 1018.3 hPa | 0 mm | - | 710 W/m² | - |
| 1777227016 | 17.78° C | 50% | 1018.2 hPa | 0 mm | - | 719 W/m² | - |
| 1777226715 | 17.78° C | 49% | 1018.4 hPa | 0 mm | - | 701 W/m² | - |
| 1777226411 | 17.78° C | 48% | 1018.3 hPa | 0 mm | - | 699 W/m² | - |
| 1777226106 | 17.78° C | 51% | 1018.3 hPa | 0 mm | - | 724 W/m² | - |
| 1777225803 | 18.33° C | 49% | 1018.3 hPa | 0 mm | - | 774 W/m² | - |
| 1777225499 | 18.89° C | 48% | 1018.4 hPa | 0 mm | - | 791 W/m² | - |
| 1777225196 | 18.89° C | 48% | 1018.1 hPa | 0 mm | - | 770 W/m² | - |
| 1777224893 | 19.44° C | 47% | 1018.3 hPa | 0 mm | - | 767 W/m² | - |
| 1777224589 | 18.89° C | 51% | 1018.5 hPa | 0 mm | - | 769 W/m² | - |
| 1777224284 | 18.89° C | 49% | 1018.5 hPa | 0 mm | - | 724 W/m² | - |
| 1777223981 | 18.89° C | 49% | 1018.3 hPa | 0 mm | - | 717 W/m² | - |
| 1777223679 | 17.78° C | 50% | 1018.7 hPa | 0 mm | - | 703 W/m² | - |
| 1777223374 | 18.33° C | 51% | 1018.7 hPa | 0 mm | - | 719 W/m² | - |
| 1777223073 | 17.22° C | 53% | 1018.6 hPa | 0 mm | - | 759 W/m² | - |
| 1777222769 | 17.22° C | 54% | 1019.1 hPa | 0 mm | - | 721 W/m² | - |
| 1777222467 | 17.22° C | 52% | 1018.9 hPa | 0 mm | - | 690 W/m² | - |
* Rain latest hour (hover to see other rain measurements)
** Current wind speed in m/s (hover to see current wind gust speed)